Regional Weather Roundup
Issued by NWS Charleston, SC

Current Version | Previous Version | Graphics & Text | Print | Product List | Glossary On
Versions: 1 2 3 4 5 6 7 8 9 10 11 12 13 14 15 16 17 18 19 20 21 22 23 24 25 26 27 28 29 30 31 32 33 34 35 36 37 38 39 40 41 42 43 44 45 46 47 48 49 50
000
ASUS42 KCHS 072327
RWRCHS

REGIONAL WEATHER ROUNDUP
NATIONAL WEATHER SERVICE CHARLESTON SC
600 PM EST WED DEC 07 2016

NOTE: "FAIR" INDICATES FEW OR NO CLOUDS BELOW 12,000 FEET WITH NO
SIGNIFICANT WEATHER AND/OR OBSTRUCTIONS TO VISIBILITY.

NOT ALL STATIONS ARE QUALITY CONTROLLED. USE DATA WITH CAUTION...
ESPECIALLY DEWPOINT OBSERVATIONS.

SCZ027-030-031-034>040-042>050-080000-
...SOUTHEAST SOUTH CAROLINA...

CITY           SKY/WX    TMP DP  RH WIND       PRES   REMARKS
N CHARLESTON   PTCLDY    55  50  83 W6        30.07R
WATERFRONT PRK   N/A     56  53  90 CALM      30.05R
MOUNT PLEASANT CLOUDY    55  52  88 CALM      30.07R
JOHNS ISLAND   FAIR      52  50  93 CALM      30.07R
PINOPOLIS        N/A     55  52  88 W7        29.97R
MONCKS CORNER  FAIR      50  48  93 CALM      30.07R
SUMMERVILLE    MOCLDY    52  52 100 CALM      30.08R
BEAUFORT MCAS  PTCLDY    56  53  90 CALM      30.07R
BEAUFORT ARPT  FAIR      54  52  94 CALM      30.07R
HILTON HEAD IS PTCLDY    55  52  88 NE5       30.06S
WALTERBORO     CLOUDY    55 N/A N/A CALM      30.08R
ALLENDALE      CLOUDY    55  54  94 CALM      30.06R

...SOUTHERN MIDLANDS AND PEE DEE...

CITY           SKY/WX    TMP DP  RH WIND       PRES   REMARKS
GEORGETOWN     FAIR      50  46  87 CALM      30.07R
KINGSTREE      MOCLDY    54  46  76 CALM      30.07R
ORANGEBURG     CLOUDY    53  51  93 CALM      30.07R
BARNWELL       NOT AVBL
AIKEN          CLOUDY    50  50 100 CALM      30.10R
MANNING        MOCLDY    52  48  87 SW6       30.07R
COLUMBIA       CLOUDY    54  49  83 SW6       30.07R
SUMTER         CLEAR     52  47  81 SW5       30.04R
FLORENCE       MOCLDY    56  48  74 CALM      30.05R
MYRTLE BEACH   NOT AVBL
N MYRTLE BEACH CLEAR     55  49  80 S5        30.05R

$$

GAZ063-065-086>088-099>101-113>116-118-119-134>141-150-080000-
...SOUTHEAST GEORGIA...

CITY           SKY/WX    TMP DP  RH WIND       PRES   REMARKS
SAVANNAH ARPT  PTCLDY    58  54  86 SE5       30.06R
HUNTER AAF     MOCLDY    57  57 100 SE6       30.03F
FORT STEWART   CLEAR     60  56  87 E7        30.03R
STATESBORO     MOCLDY    59  57  93 CALM      30.06R
SYLVANIA       MOCLDY   N/A N/A N/A CALM      30.07R
CLAXTON        FAIR     N/A N/A N/A CALM      30.05S

...CSRA...CENTRAL AND FAR SOUTHEAST GEORGIA...

CITY           SKY/WX    TMP DP  RH WIND       PRES   REMARKS
THOMSON        CLEAR     52  52 100 CALM      30.11R
AUGUSTA-BUSH   CLOUDY    56  51  84 CALM      30.06R
AUGUSTA-DANIEL CLOUDY    56  50  80 CALM      30.07R
SWAINSBORO     FAIR      55  54  94 CALM      30.06S
VIDALIA        CLEAR     61  55  82 W3        30.07R
EASTMAN        FAIR      57  44  62 CALM      30.10R
HAZLEHURST     FAIR      58  56  90 CALM      30.07R
ALMA           CLEAR     59  54  83 W3        30.06R
WAYCROSS       CLEAR     63  59  88 NW5       30.07R
JESUP          FAIR      59  59 100 CALM      30.06R
BAXLEY         FAIR      61  59  94 W3        30.07R
BRUNSWICK      PTCLDY    63  61  94 SE3       30.07R
SAINT SIMONS   PTCLDY    61  57  87 CALM      30.06R

$$

SCZ027-028-034-036>038-045-046-048>050-GAZ119-141-080000-
...LAKE AND SUPPLEMENTAL COASTAL OBSERVATIONS...

STATION/POSITION TIME  TEMP    WIND        PRES    WAVE   SWELL
                       AIR SEA DIR/SP/G            HT/PER HT/PER/DIR
                 (UTC) (F)     (DEG/KT/KT) (MB)    (FT/S) (FT/S/D)
WINYAH BAY       2245   55     340/  1     1017.0S
LAKE MURRAY      2320   53     250/  6/  7 1017.9R
ACE BASIN NERRS  2245   56        CALM     1017.0S
FORT PULASKI     2300   59 62  130/  4/  5 1018.1
SAPELO ISLAND    2300   59     130/  3     1018.0

$$

ANZ835-935-AMZ111-154-330-350-352-354-370-450-454-472-080000-
...C-MAN AND BUOY OBSERVATIONS...

STATION/POSITION TIME  TEMP    WIND        PRES    WAVE   SWELL
                       AIR SEA DIR/SP/G            HT/PER HT/PER/DIR
                 (UTC) (F)     (DEG/KT/KT) (MB)    (FT/S) (FT/S/D)
BUOY 41004       2250   63 74  330/  4/  6 1017.4R   2/ 7   2/170/ 7
BUOY 41008       2250   63 65  120/  4/  6 1017.7R   2/ 7   2/120/ 7
FOLLY BEACH CMAN 2300   56     240/  3/  4 1018.4R
CAPERS NEARSHORE 2208   56 62  170/  4/  6 1017.5R
FRIPP NEARSHORE  2308   58 62  100/  6/  6 1017.7R


STATION/POSITION TIME  TEMP    WIND        PRES    WAVE   SWELL
                       AIR SEA DIR/SP/G            HT/PER HT/PER/DIR
                 (UTC) (F)     (DEG/KT/KT) (MB)    (FT/S) (FT/S/D)
5E ST. MARYS GA  2300      66                N/A     1/13
FRYING PAN BUOY  2310   60 73   80/  2/  4 1017.9
BUOY 41025       2250   57 77   10/ 12/ 16 1017.9R   6/10   5/ 50/10
CAPE LOOKOUT NC  2300   54      40/  8/  9 1017.9R
BUOY 41002       2250   70 74  350/ 10/ 12 1017.0R   7/ 8   7/280/ 8
BUOY 41010       NOT AVBL
ST AUGUSTINE FL  2300   66 68  130/  3/  3 1019.0R


$$



USA.gov is the U.S. government's official web portal to all federal, state and local government web resources and services.